Date,TemperatureHighF,TemperatureAvgF,TemperatureLowF,DewpointHighF,DewpointAvgF,DewpointLowF,HumidityHigh,HumidityAvg,HumidityLow,PressureMaxIn,PressureMinIn,WindSpeedMaxMPH,WindSpeedAvgMPH,GustSpeedMaxMPH,PrecipitationSumIn
2012-1-1,44,38,30,36,21,8,88,53,30,30.53,29.88,26,10,31,0.01
2012-1-2,34,27,18,15,9,5,69,46,29,30.62,30.52,20,6,27,0.00
2012-1-3,49,33,16,25,16,6,88,52,31,30.53,30.02,19,5,24,0.00
2012-1-4,51,42,34,31,27,23,75,57,35,30.24,30.02,18,5,19,0.00
2012-1-5,64,48,34,36,32,28,83,57,31,30.12,29.77,13,5,16,0.00
2012-1-6,58,48,40,37,32,26,71,54,33,30.00,29.69,16,6,20,0.00
2012-1-7,49,39,28,28,25,21,78,58,37,30.23,30.00,9,2,12,0.00
2012-1-8,44,35,28,31,27,24,92,74,55,30.33,30.23,7,1,8,0.00
2012-1-9,51,36,22,33,27,20,94,72,44,30.29,30.07,10,2,16,0.00
2012-1-10,56,41,28,34,27,23,85,59,31,30.07,29.71,10,2,16,0.00
2012-1-11,46,34,22,34,26,16,90,74,58,29.92,29.62,29,7,36,0.00
2012-1-12,23,17,14,15,8,3,74,67,58,30.05,29.90,24,13,36,0.00
2012-1-13,31,19,8,16,8,2,80,62,37,30.17,29.99,11,3,20,0.00
2012-1-14,41,32,26,27,21,15,79,64,54,30.22,29.86,18,4,25,0.00
2012-1-15,63,44,26,34,26,22,92,55,24,30.20,29.78,25,7,26,0.00
2012-1-16,50,44,39,37,35,32,89,73,54,29.78,29.65,11,2,18,0.00
2012-1-17,33,22,12,29,16,9,89,76,62,30.41,29.72,15,8,27,0.00
2012-1-18,41,25,10,20,14,6,88,65,38,30.40,29.87,23,6,29,0.00
2012-1-19,32,21,12,22,9,2,81,61,45,30.14,29.86,19,8,24,0.00
2012-1-20,25,17,11,16,9,2,76,69,62,30.21,29.89,14,6,18,0.00
2012-1-21,26,20,14,23,14,7,89,77,69,30.23,29.80,16,6,23,0.00
2012-1-22,54,41,25,47,37,23,97,88,73,29.80,29.35,19,7,34,0.05
2012-1-23,41,33,23,30,27,20,91,77,62,30.07,29.53,21,7,32,0.00
2012-1-24,44,32,20,31,26,18,100,77,57,30.27,30.07,10,3,16,0.00
2012-1-25,49,40,32,37,32,27,90,73,62,30.23,29.92,12,2,15,0.00
2012-1-26,52,41,32,37,32,26,97,74,43,29.92,29.78,18,5,27,0.00
2012-1-27,38,32,26,34,28,23,100,86,70,30.19,29.86,13,3,18,0.02
2012-1-28,46,34,23,26,18,12,78,55,26,30.35,30.19,24,4,26,0.00
2012-1-29,49,38,28,28,18,12,59,44,28,30.27,30.03,8,2,13,0.00
2012-1-30,65,53,42,44,35,29,67,53,30,30.03,29.79,22,8,24,0.00
2012-1-31,64,55,42,51,43,32,85,66,36,30.02,29.77,21,6,27,0.00
2012-2-1,63,48,32,38,30,26,89,56,28,30.14,30.02,9,1,10,0.00
2012-2-2,62,48,32,34,30,26,81,51,31,30.24,30.13,9,2,14,0.00
2012-2-3,52,45,42,41,38,30,95,78,47,30.19,29.98,27,9,34,0.99
2012-2-4,42,38,33,41,37,32,97,96,94,30.26,29.96,18,8,21,0.35
2012-2-5,45,35,29,36,31,28,97,85,59,30.40,30.27,13,4,17,0.04
2012-2-6,50,36,27,37,30,26,97,82,53,30.33,30.17,7,2,12,0.00
2012-2-7,37,36,34,35,32,30,92,85,78,30.43,30.19,13,5,15,0.00
2012-2-8,37,31,27,31,26,20,93,79,59,30.50,30.38,10,3,14,0.00
2012-2-9,39,34,28,32,27,21,86,77,68,30.39,30.08,13,3,15,0.00
2012-2-10,37,25,11,34,15,2,89,67,45,30.53,30.01,23,10,30,0.00
2012-2-11,26,15,6,5,2,-1,76,57,34,30.78,30.53,18,6,19,0.00
2012-2-12,37,23,5,10,5,0,82,49,21,30.68,30.15,13,4,16,0.00
2012-2-13,34,31,27,32,27,10,100,88,37,30.15,29.76,19,6,24,0.01
2012-2-14,46,35,26,35,31,25,97,86,60,29.92,29.79,11,2,13,0.16
2012-2-15,44,38,34,42,36,32,97,94,89,30.06,29.85,7,2,11,0.02
2012-2-16,50,39,30,34,29,24,95,70,38,30.29,30.07,11,2,14,0.00
2012-2-17,58,43,32,38,32,27,84,65,46,30.17,30.03,15,4,19,0.00
2012-2-18,44,35,25,27,23,20,85,64,44,30.25,30.12,18,4,18,0.00
2012-2-19,48,37,24,30,26,20,90,65,44,30.15,30.01,11,2,17,0.00
2012-2-20,49,40,33,40,33,24,94,75,63,30.05,29.58,24,8,31,0.30
2012-2-21,52,42,34,39,33,28,96,71,43,29.89,29.63,19,5,24,0.01
2012-2-22,60,48,39,37,33,28,68,57,40,29.69,29.39,12,4,16,0.00
2012-2-23,57,46,35,48,39,30,91,78,66,29.72,29.18,30,8,32,0.09
2012-2-24,44,36,31,32,27,18,91,72,36,30.21,29.72,23,8,29,0.00
2012-2-25,44,33,22,28,21,15,89,62,43,30.35,29.93,20,6,26,0.00
2012-2-26,63,51,37,30,26,19,62,40,24,30.16,29.86,24,9,31,0.00
2012-2-27,42,32,26,28,21,17,72,63,48,30.47,30.17,16,7,19,0.00
2012-2-28,61,49,38,58,38,22,95,69,48,30.29,29.41,30,8,32,0.43
2012-2-29,56,46,34,51,33,28,85,61,47,29.87,29.45,30,8,35,0.14
2012-3-1,69,45,27,39,33,26,95,66,29,29.87,29.49,17,5,24,0.19
2012-3-2,48,40,33,37,31,23,95,74,46,29.92,29.50,16,7,20,0.12
2012-3-3,45,36,29,24,21,17,74,56,34,30.00,29.91,22,7,30,0.00
2012-3-4,59,42,27,37,27,20,81,58,39,30.19,29.82,32,6,33,0.00
2012-3-5,56,41,25,34,26,22,90,58,32,30.33,29.93,21,6,25,0.00
2012-3-6,71,63,52,50,43,34,60,47,33,29.93,29.68,26,14,36,0.00
2012-3-7,69,58,41,56,48,34,84,70,51,29.99,29.68,26,12,37,0.01
2012-3-8,50,39,32,34,26,22,94,63,33,30.47,29.97,21,6,25,0.11
2012-3-9,57,44,30,33,28,21,77,54,36,30.55,30.37,11,3,15,0.04
2012-3-10,65,51,38,36,32,28,69,50,31,30.37,30.12,23,4,24,0.00
2012-3-11,51,48,44,50,42,32,98,84,53,30.11,29.77,9,3,18,0.52
2012-3-12,72,57,47,55,49,46,96,77,44,29.92,29.71,16,4,19,0.13
2012-3-13,80,63,45,58,49,42,89,65,32,30.00,29.82,19,5,25,0.00
2012-3-14,81,71,62,66,62,58,89,75,55,29.90,29.76,23,10,29,0.00
2012-3-15,76,68,60,66,62,58,95,81,65,29.96,29.86,18,4,22,0.00
2012-3-16,82,71,62,66,63,60,93,77,50,29.91,29.79,19,6,24,0.00
2012-3-17,78,70,64,66,62,60,87,76,63,29.86,29.75,23,8,27,0.00
2012-3-18,76,70,66,64,61,59,81,72,64,29.80,29.72,23,9,27,0.00
2012-3-19,73,65,57,62,59,55,96,82,67,29.73,29.59,27,8,28,1.02
2012-3-20,58,57,56,57,56,55,98,96,95,29.84,29.66,19,4,22,0.42
2012-3-21,63,59,54,61,58,52,98,95,88,29.86,29.72,19,5,27,0.29
2012-3-22,66,54,49,54,50,44,98,88,55,29.93,29.79,21,3,29,0.66
2012-3-23,64,56,51,54,50,48,97,82,61,29.88,29.81,12,4,14,0.01
2012-3-24,74,62,50,53,49,45,87,64,41,29.96,29.86,14,3,18,0.00
2012-3-25,79,64,49,59,51,45,92,65,35,30.05,29.94,9,1,12,0.00
2012-3-26,80,68,56,60,56,53,90,67,42,30.02,29.80,22,5,22,0.00
2012-3-27,75,68,64,62,59,56,85,73,62,29.87,29.79,20,7,31,0.02
2012-3-28,78,66,52,60,52,46,92,64,43,29.98,29.82,14,2,24,0.34
2012-3-29,77,66,56,66,58,51,92,78,59,29.89,29.60,21,9,29,0.29
2012-3-30,74,66,60,62,58,52,94,76,47,29.76,29.61,17,3,24,0.00
2012-3-31,82,69,57,64,58,55,93,72,42,29.78,29.63,14,4,19,0.00
2012-4-1,85,74,64,70,64,60,90,73,52,29.64,29.40,17,6,24,0.00
2012-4-2,87,76,66,68,62,50,82,63,28,29.65,29.42,18,7,24,0.00
2012-4-3,67,62,57,58,56,52,89,80,69,29.83,29.63,12,3,16,0.00
2012-4-4,59,56,54,53,51,49,93,82,74,29.80,29.68,18,6,19,0.29
2012-4-5,63,52,44,52,44,39,94,75,45,30.02,29.72,17,6,23,0.02
2012-4-6,63,52,42,42,39,34,85,63,34,30.16,30.00,14,4,21,0.00
2012-4-7,61,54,49,53,44,34,85,70,52,30.30,29.99,13,4,16,0.08
2012-4-8,68,54,38,40,34,31,82,49,28,30.37,30.13,12,2,14,0.00
2012-4-9,70,58,41,44,36,27,86,48,24,30.18,30.05,12,2,13,0.00
2012-4-10,61,52,39,34,29,25,66,43,31,30.23,30.10,13,4,17,0.00
2012-4-11,58,47,35,32,27,23,64,47,32,30.33,30.17,16,4,19,0.00
2012-4-12,54,48,42,47,39,30,90,72,56,30.18,29.92,14,3,20,0.11
2012-4-13,71,60,50,62,55,45,94,84,72,29.92,29.74,20,7,26,0.12
2012-4-14,75,68,61,66,62,59,96,85,63,29.81,29.46,20,7,35,0.02
2012-4-15,73,68,54,64,55,39,91,65,35,29.52,29.36,28,13,40,0.38
2012-4-16,65,55,47,45,42,40,80,63,42,30.20,29.52,20,5,33,0.00
2012-4-17,71,58,46,50,46,42,86,65,43,30.28,30.10,13,4,19,0.00
2012-4-18,78,65,51,56,51,46,86,64,39,30.11,29.83,15,5,24,0.00
2012-4-19,77,65,48,58,53,44,86,65,41,29.85,29.58,22,7,30,0.00
2012-4-20,59,49,45,44,39,34,86,69,41,30.04,29.77,17,8,23,0.00
2012-4-21,68,53,37,46,40,33,92,65,42,30.05,29.85,10,2,14,0.00
2012-4-22,57,52,45,43,40,37,82,64,51,30.19,29.92,20,7,28,0.00
2012-4-23,66,52,38,45,40,36,95,66,35,30.20,29.91,15,3,17,0.00
2012-4-24,86,66,47,58,49,38,75,56,35,29.91,29.51,13,4,21,0.00
2012-4-25,92,76,64,66,58,47,79,55,28,29.66,29.45,16,4,19,0.00
2012-4-26,76,68,55,57,51,45,77,54,39,29.92,29.66,13,5,19,0.00
2012-4-27,63,57,53,50,45,42,82,63,51,29.94,29.57,30,8,32,0.01
2012-4-28,67,61,55,56,54,50,93,79,64,29.98,29.61,16,6,20,0.01
2012-4-29,58,53,50,55,52,49,97,95,82,30.00,29.89,17,5,19,1.00
2012-4-30,65,57,53,58,54,52,98,92,79,29.99,29.83,8,2,11,0.00
2012-5-1,80,69,59,70,64,57,98,84,65,29.85,29.60,17,6,22,0.28
2012-5-2,81,75,71,72,68,64,81,77,69,29.74,29.60,17,7,23,0.00
2012-5-3,83,74,63,74,68,61,98,84,72,29.84,29.70,18,6,23,0.63
2012-5-4,85,76,64,75,70,60,93,81,66,29.84,29.67,21,5,28,0.02
2012-5-5,87,77,68,74,71,67,98,81,62,29.77,29.68,15,4,20,0.01
2012-5-6,76,71,63,70,67,61,96,89,74,29.85,29.70,13,3,24,0.84
2012-5-7,70,64,60,64,55,49,96,73,49,29.99,29.82,18,7,23,0.16
2012-5-8,72,62,50,51,46,40,89,58,32,30.02,29.91,16,4,20,0.00
2012-5-9,69,58,47,51,46,43,88,65,40,30.04,29.91,24,3,24,0.00
2012-5-10,77,64,49,58,53,47,95,68,47,29.93,29.81,16,4,20,0.00
2012-5-11,79,69,56,62,57,53,91,68,45,30.05,29.85,8,2,12,0.00
2012-5-12,67,58,54,59,51,44,93,77,54,30.22,30.06,15,5,18,0.11
2012-5-13,73,63,54,59,53,48,87,70,47,30.22,30.10,10,3,13,0.00
2012-5-14,77,66,49,58,50,43,97,60,33,30.12,29.97,9,1,9,0.00
2012-5-15,83,70,54,59,53,47,82,57,39,30.00,29.86,14,4,19,0.00
2012-5-16,77,67,54,52,47,41,67,49,32,30.05,29.93,12,3,13,0.00
2012-5-17,82,70,57,60,54,48,76,58,44,29.98,29.81,18,6,20,0.00
2012-5-18,85,74,62,63,58,52,72,58,41,29.84,29.71,19,6,27,0.00
2012-5-19,84,75,65,64,60,56,80,60,39,29.81,29.73,25,8,32,0.00
2012-5-20,78,68,60,62,56,50,85,67,48,30.13,29.82,15,5,20,0.00
2012-5-21,74,62,49,52,46,42,86,57,35,30.23,30.06,16,3,16,0.00
2012-5-22,79,67,53,54,49,45,91,56,33,30.07,29.73,15,5,24,0.00
2012-5-23,88,74,60,66,58,50,71,58,46,29.73,29.41,26,9,34,0.00
2012-5-24,84,76,67,71,66,60,92,72,61,29.70,29.36,19,7,25,0.00
2012-5-25,81,72,63,71,65,60,95,81,58,29.89,29.70,16,3,20,0.00
2012-5-26,88,81,73,76,72,67,88,74,63,29.85,29.77,20,7,22,0.00
2012-5-27,89,81,74,69,64,56,79,57,41,29.80,29.62,27,9,27,0.00
2012-5-28,89,81,69,68,59,45,65,48,28,29.78,29.60,19,7,23,0.00
2012-5-29,82,72,61,58,52,47,70,51,32,29.89,29.76,13,4,16,0.00
2012-5-30,80,69,56,58,51,46,84,55,39,29.92,29.70,20,5,30,0.05
2012-5-31,66,59,52,57,53,48,91,80,68,29.97,29.70,17,8,24,0.00
2012-6-1,68,57,44,50,47,43,97,71,44,30.01,29.86,12,3,15,0.00
2012-6-2,83,66,49,58,52,46,92,64,31,29.88,29.75,11,3,17,0.00
2012-6-3,80,69,58,69,61,52,92,76,60,29.81,29.71,11,2,13,0.00
2012-6-4,90,77,63,72,65,59,98,72,36,29.83,29.70,18,4,23,0.00
2012-6-5,84,74,60,64,59,54,95,63,36,29.90,29.80,10,2,16,0.00
2012-6-6,83,73,64,61,58,56,76,61,42,29.98,29.85,12,2,15,0.00
2012-6-7,82,72,62,57,54,52,74,56,38,30.06,29.97,9,2,14,0.00
2012-6-8,86,73,59,60,56,54,90,59,36,30.02,29.82,13,3,16,0.00
2012-6-9,90,77,61,64,60,55,86,58,38,29.84,29.62,22,6,27,0.00
2012-6-10,90,81,72,69,66,61,71,60,47,29.68,29.60,22,8,28,0.00
2012-6-11,81,71,62,70,63,57,97,78,47,29.98,29.67,28,4,33,1.26
2012-6-12,79,70,57,58,54,50,92,59,37,30.13,29.98,13,3,17,0.00
2012-6-13,83,72,59,60,55,48,80,56,43,30.06,29.85,15,5,19,0.00
2012-6-14,88,78,67,68,63,59,81,62,46,29.88,29.73,16,7,24,0.00
2012-6-15,81,77,71,69,64,57,87,67,48,29.86,29.74,15,5,18,0.00
2012-6-16,87,77,69,73,68,64,91,76,46,29.93,29.84,18,4,22,0.00
2012-6-17,91,79,65,76,70,64,98,75,50,29.92,29.59,17,4,21,0.00
2012-6-18,94,85,77,72,69,64,76,60,45,29.65,29.53,23,10,29,0.00
2012-6-19,89,83,76,72,68,64,77,62,50,29.75,29.65,24,10,28,0.00
2012-6-20,90,82,70,71,68,65,88,64,50,29.86,29.73,23,9,26,0.09
2012-6-21,82,71,65,68,64,59,97,80,48,30.02,29.83,11,4,15,0.87
2012-6-22,84,74,60,66,61,57,91,65,44,30.01,29.87,9,2,12,0.00
2012-6-23,86,74,64,75,66,58,92,75,64,29.99,29.70,23,5,29,0.17
2012-6-24,98,85,72,76,72,68,90,66,42,29.83,29.75,16,4,23,0.00
2012-6-25,90,82,74,78,73,65,96,75,58,29.83,29.78,14,3,20,0.00
2012-6-26,89,78,68,71,62,52,68,59,51,29.85,29.69,15,6,20,0.00
2012-6-27,100,86,72,76,70,62,72,59,43,29.77,29.68,20,6,25,0.00
2012-6-28,102,90,75,74,69,65,75,51,33,29.83,29.74,12,5,17,0.00
2012-6-29,99,88,76,70,67,65,69,50,34,29.80,29.65,13,5,17,0.00
2012-6-30,99,88,76,76,68,64,70,52,38,29.82,29.67,17,6,26,0.02
2012-7-1,97,86,75,73,66,53,74,52,28,29.86,29.67,17,4,33,0.02
2012-7-2,95,85,73,73,70,65,83,62,43,29.90,29.78,12,4,18,0.00
2012-7-3,98,86,78,74,70,68,75,60,39,29.83,29.71,13,5,19,0.00
2012-7-4,99,88,79,70,65,60,61,48,31,29.82,29.74,16,5,22,0.00
2012-7-5,100,88,76,71,66,61,65,48,29,29.89,29.80,13,3,17,0.00
2012-7-6,102,89,74,72,67,61,74,51,27,29.91,29.82,16,2,20,0.00
2012-7-7,104,90,73,74,67,61,87,52,26,29.92,29.82,9,2,12,0.00
2012-7-8,81,77,72,76,71,67,94,82,63,29.97,29.88,12,2,16,0.09
2012-7-9,89,78,70,72,66,59,93,68,38,30.01,29.92,14,4,19,0.00
2012-7-10,73,70,68,66,64,63,89,83,77,30.00,29.96,6,2,8,0.00
2012-7-11,92,80,67,68,64,59,87,59,38,29.99,29.89,8,3,23,0.00
2012-7-12,93,82,73,71,66,62,82,60,39,29.93,29.86,10,2,19,0.00
2012-7-13,86,78,73,70,67,62,83,69,45,29.98,29.87,19,2,21,0.00
2012-7-14,96,82,66,71,66,57,97,62,27,29.98,29.86,7,1,10,0.00
2012-7-15,97,84,71,70,64,60,79,54,30,29.97,29.84,15,3,16,0.00
2012-7-16,95,84,73,72,68,64,80,59,41,29.90,29.74,12,4,18,0.00
2012-7-17,99,88,77,71,67,65,71,52,34,29.80,29.70,15,4,18,0.00
2012-7-18,104,91,80,70,66,62,62,46,26,29.81,29.68,15,5,22,0.00
2012-7-19,100,86,76,72,66,58,73,53,27,29.91,29.76,14,3,17,0.00
2012-7-20,94,82,70,68,63,52,89,56,25,30.00,29.91,14,4,18,0.00
2012-7-21,97,83,68,69,66,59,90,59,31,30.00,29.89,14,3,14,0.00
2012-7-22,102,88,72,67,64,61,80,49,28,29.97,29.87,11,3,17,0.00
2012-7-23,103,90,76,69,65,61,65,46,29,29.95,29.82,14,3,19,0.00
2012-7-24,101,90,80,70,67,64,64,47,31,29.87,29.70,14,5,19,0.00
2012-7-25,104,93,77,72,67,64,82,44,28,29.73,29.52,18,8,23,0.01
2012-7-26,95,81,73,75,70,61,96,74,34,29.80,29.63,9,2,12,0.47
2012-7-27,88,80,72,67,63,59,81,59,41,29.98,29.79,12,5,17,0.00
2012-7-28,92,80,67,66,63,60,83,60,36,30.06,29.90,12,3,16,0.00
2012-7-29,104,87,76,70,66,61,63,51,31,29.93,29.72,14,5,21,0.00
2012-7-30,88,82,75,74,70,64,87,69,53,29.85,29.74,19,2,22,0.04
2012-7-31,99,84,70,75,68,60,97,64,28,29.88,29.79,7,1,13,0.00
2012-8-1,99,87,75,70,65,60,70,51,29,29.83,29.69,13,2,20,0.00
2012-8-2,95,83,71,72,68,62,94,63,39,29.78,29.63,18,3,29,0.05
2012-8-3,93,84,74,73,70,68,84,64,48,29.75,29.66,9,2,13,0.00
2012-8-4,89,81,72,73,70,63,80,70,56,29.95,29.63,10,3,16,0.00
2012-8-5,87,75,62,63,58,52,90,58,32,30.13,29.95,15,4,18,0.00
2012-8-6,96,79,61,62,57,53,82,50,26,30.09,29.90,10,2,13,0.00
2012-8-7,102,87,69,62,58,54,71,41,20,29.92,29.80,11,2,17,0.00
2012-8-8,96,81,69,67,63,57,87,56,35,29.91,29.72,21,4,31,0.16
2012-8-9,83,73,63,69,64,59,95,74,48,29.91,29.81,20,5,22,0.00
2012-8-10,78,67,58,60,57,53,90,71,42,30.01,29.91,17,5,19,0.00
2012-8-11,85,71,56,60,55,52,90,60,36,30.03,29.87,8,1,14,0.00
2012-8-12,93,78,67,64,61,56,78,59,31,29.91,29.70,17,4,26,0.06
2012-8-13,74,68,61,63,60,56,91,77,60,29.97,29.81,15,5,20,0.00
2012-8-14,78,66,58,62,58,56,95,77,48,30.01,29.87,10,2,15,0.00
2012-8-15,94,76,57,68,62,55,97,66,40,29.88,29.69,13,4,18,0.00
2012-8-16,81,72,62,68,61,52,84,67,52,30.01,29.71,17,5,21,0.00
2012-8-17,62,62,62,52,52,51,69,68,68,30.01,30.01,3,1,4,0.00
2012-8-18,82,68,54,52,46,39,75,48,23,29.99,29.82,12,2,17,0.00
2012-8-19,80,69,58,54,50,44,82,54,29,29.98,29.89,20,4,20,0.00
2012-8-20,86,72,53,54,50,47,85,50,26,29.99,29.86,9,2,14,0.00
2012-8-21,93,76,58,60,51,47,83,46,22,29.96,29.89,11,2,14,0.00
2012-8-22,95,80,62,59,53,48,80,43,21,29.97,29.85,17,3,32,0.00
2012-8-23,94,81,65,58,52,49,65,39,23,29.95,29.82,19,5,26,0.00
2012-8-24,85,78,71,67,60,50,67,53,36,29.91,29.78,12,3,18,0.00
2012-8-25,85,74,68,71,67,62,95,80,56,29.85,29.77,13,2,17,0.41
2012-8-26,82,74,69,73,71,68,98,89,71,29.96,29.78,9,2,14,0.72
2012-8-27,91,77,66,72,65,57,98,71,33,30.09,29.96,8,1,12,0.00
2012-8-28,94,79,63,67,62,58,93,60,32,30.08,29.90,9,1,12,0.00
2012-8-29,96,81,65,67,62,59,95,57,31,29.95,29.81,9,2,16,0.00
2012-8-30,97,82,66,62,59,54,81,50,25,29.91,29.80,11,2,13,0.00
2012-8-31,80,73,69,70,66,57,96,82,52,29.88,29.76,21,6,23,0.67
2012-9-1,78,73,71,72,70,67,96,90,77,29.87,29.73,19,9,26,0.53
2012-9-2,88,75,64,72,67,62,94,78,54,29.90,29.80,7,2,10,0.00
2012-9-3,92,79,68,75,70,63,98,77,50,29.91,29.75,14,2,30,0.92
2012-9-4,93,81,69,76,72,67,95,76,52,29.85,29.68,15,3,21,0.58
2012-9-5,92,81,72,72,68,58,86,67,49,29.81,29.67,9,2,13,0.00
2012-9-6,88,77,65,70,63,56,76,63,50,29.91,29.73,11,3,15,0.00
2012-9-7,80,71,59,70,64,55,92,79,68,29.99,29.69,20,6,26,0.20
2012-9-8,78,64,52,55,51,48,88,64,35,30.10,29.93,12,3,19,0.00
2012-9-9,74,64,53,54,50,46,84,63,44,30.14,29.92,12,4,14,0.00
2012-9-10,79,66,53,57,55,52,96,69,42,30.12,29.95,14,4,20,0.00
2012-9-11,89,74,62,62,57,54,80,58,32,29.98,29.87,18,6,24,0.00
2012-9-12,86,76,67,64,61,57,76,61,43,30.02,29.90,20,6,24,0.00
2012-9-13,72,57,54,57,52,46,95,84,49,30.31,30.02,22,9,26,0.38
2012-9-14,71,58,50,54,51,47,98,79,43,30.36,30.25,9,2,13,0.01
2012-9-15,73,62,50,60,54,47,91,75,51,30.26,30.07,13,2,19,0.00
2012-9-16,72,64,58,64,60,55,97,88,73,30.07,29.90,9,1,11,0.00
2012-9-17,78,64,51,66,59,49,99,85,55,29.96,29.80,21,4,30,0.00
2012-9-18,69,56,44,49,44,38,95,68,35,30.07,29.95,11,2,16,0.00
2012-9-19,82,68,53,59,51,43,76,57,39,29.99,29.76,23,6,25,0.01
2012-9-20,74,64,49,55,44,36,87,51,26,29.99,29.90,11,2,16,0.00
2012-9-21,78,66,56,55,44,37,88,48,23,29.92,29.75,20,4,26,0.00
2012-9-22,64,56,47,41,36,28,69,49,27,30.24,29.88,16,4,19,0.00
2012-9-23,68,53,37,44,38,33,90,60,33,30.32,30.18,7,1,11,0.00
2012-9-24,75,62,50,60,50,40,77,66,54,30.19,29.76,14,2,18,0.00
2012-9-25,82,69,60,68,63,58,95,80,58,29.82,29.71,10,1,15,0.03
2012-9-26,72,67,62,66,62,56,96,85,74,30.04,29.78,9,1,11,0.06
2012-9-27,74,65,57,57,53,50,88,68,47,30.12,30.04,8,1,11,0.00
2012-9-28,72,62,53,55,51,48,97,71,46,30.14,30.05,14,1,18,0.00
2012-9-29,75,60,46,52,47,44,95,67,36,30.13,29.98,7,1,10,0.00
2012-9-30,79,65,51,52,48,45,82,57,34,29.99,29.81,8,1,11,0.00
2012-10-1,77,66,57,54,48,40,73,54,36,29.84,29.74,14,4,23,0.00
2012-10-2,76,62,49,53,45,39,74,55,36,29.89,29.79,10,3,14,0.00
2012-10-3,78,62,46,50,46,40,96,60,27,29.92,29.82,15,3,19,0.00
2012-10-4,65,54,47,53,45,40,84,73,58,30.21,29.91,20,3,22,0.00
2012-10-5,50,45,35,42,35,30,88,68,53,30.27,30.20,16,5,22,0.00
2012-10-6,45,40,34,32,30,27,89,67,52,30.34,30.25,12,3,17,0.00
2012-10-7,57,43,29,33,28,25,89,60,32,30.31,30.10,10,2,14,0.00
2012-10-8,64,50,38,38,34,28,77,56,36,30.11,29.91,19,6,26,0.00
2012-10-9,64,53,43,47,40,28,77,60,49,30.08,29.85,13,5,23,0.00
2012-10-10,64,48,33,35,31,27,81,54,28,30.25,30.08,6,2,14,0.00
2012-10-11,70,56,42,56,45,34,78,65,47,30.19,29.99,18,2,23,0.00
2012-10-12,57,53,49,52,38,28,84,58,44,30.28,30.02,18,6,24,0.00
2012-10-13,68,64,56,66,62,52,97,94,84,30.03,29.56,22,6,23,0.67
2012-10-14,66,61,54,62,52,43,95,73,44,29.93,29.47,25,6,29,0.54
2012-10-15,72,58,44,52,47,42,97,69,46,29.97,29.77,10,1,13,0.00
2012-10-16,81,68,56,57,53,50,83,60,41,29.77,29.42,21,7,32,0.00
2012-10-17,67,61,52,58,48,27,86,65,37,29.57,29.34,18,5,29,0.02
2012-10-18,56,50,47,41,33,27,82,53,36,29.61,29.55,28,8,34,0.00
2012-10-19,50,47,45,43,42,41,90,82,76,29.80,29.58,23,7,28,0.07
2012-10-20,67,53,40,48,43,38,97,73,45,29.83,29.68,12,2,15,0.00
2012-10-21,76,64,51,67,57,44,86,77,67,29.77,29.68,14,4,20,0.00
2012-10-22,81,72,68,70,67,65,92,83,63,29.75,29.67,17,4,24,0.00
2012-10-23,80,73,69,68,66,64,89,80,65,29.74,29.62,18,7,24,0.00
2012-10-24,83,74,68,69,66,62,92,77,60,29.73,29.61,19,8,26,0.00
2012-10-25,74,51,38,64,45,30,94,79,64,30.26,29.54,19,10,30,0.08
2012-10-26,45,38,33,31,29,27,81,69,54,30.46,30.25,17,6,22,0.00
2012-10-27,46,36,27,32,28,24,90,74,54,30.42,30.25,7,1,9,0.00
2012-10-28,51,40,28,33,29,24,90,68,46,30.34,30.23,6,1,9,0.00
2012-10-29,54,45,40,36,32,27,73,60,48,30.28,30.10,17,3,19,0.00
2012-10-30,53,45,37,34,31,27,80,60,42,30.11,29.97,10,2,15,0.00
2012-10-31,60,47,36,38,32,29,78,57,37,30.05,29.95,7,1,10,0.00
2012-11-1,71,53,40,46,41,35,91,65,38,29.97,29.83,16,2,19,0.00
2012-11-2,60,49,41,41,36,34,81,63,42,29.94,29.83,14,5,20,0.00
2012-11-3,57,45,36,37,34,31,84,65,43,30.17,29.92,13,4,17,0.00
2012-11-4,60,48,36,43,39,30,94,72,49,30.19,29.98,14,2,15,0.01
2012-11-5,49,44,41,45,42,39,99,93,79,30.09,29.93,16,4,17,0.18
2012-11-6,57,46,41,43,38,32,99,74,43,30.07,29.94,20,4,24,0.01
2012-11-7,55,44,36,37,34,31,82,70,48,30.16,30.02,11,3,14,0.00
2012-11-8,66,51,37,45,39,33,87,67,42,30.09,29.85,18,4,20,0.00
2012-11-9,75,62,48,60,52,42,81,72,59,29.86,29.68,16,6,26,0.00
2012-11-10,74,69,65,60,57,53,78,66,54,29.71,29.59,25,11,32,0.00
2012-11-11,68,40,26,57,36,21,95,86,64,30.19,29.56,20,6,27,1.32
2012-11-12,44,36,23,27,23,19,83,60,43,30.42,30.19,19,3,21,0.04
2012-11-13,56,41,28,36,30,20,90,65,35,30.43,30.31,9,2,12,0.00
2012-11-14,57,47,36,36,30,26,87,56,31,30.37,30.24,10,3,15,0.00
2012-11-15,54,46,38,37,34,29,78,63,50,30.36,30.23,9,1,12,0.00
2012-11-16,58,46,33,42,37,30,91,71,47,30.44,30.33,7,1,9,0.00
2012-11-17,61,48,38,40,35,32,87,65,34,30.36,30.23,17,3,23,0.00
2012-11-18,62,52,38,39,36,31,77,55,40,30.24,30.10,14,5,21,0.00
2012-11-19,65,55,48,49,45,36,85,69,50,30.11,29.99,18,5,21,0.00
2012-11-20,65,49,38,46,41,35,91,75,48,30.17,30.05,9,1,11,0.00
2012-11-21,72,55,42,46,42,39,92,64,34,30.17,29.91,20,5,25,0.00
2012-11-22,68,59,43,54,45,35,75,59,44,30.18,29.77,20,8,26,0.00
2012-11-23,43,34,25,35,19,13,76,56,40,30.45,30.18,21,6,30,0.00
2012-11-24,45,34,21,27,20,13,76,57,42,30.41,29.88,18,4,23,0.00
2012-11-25,55,43,33,35,29,26,79,60,44,30.05,29.87,13,5,16,0.00
2012-11-26,39,30,20,29,24,13,92,76,59,30.47,30.05,18,6,25,0.00
2012-11-27,40,27,13,21,16,9,92,64,39,30.47,30.27,11,2,14,0.00
2012-11-28,53,38,24,34,28,19,86,67,45,30.41,30.16,11,2,12,0.00
2012-11-29,59,45,36,43,36,30,83,71,53,30.16,29.94,18,3,18,0.00
2012-11-30,59,49,41,40,37,35,78,65,46,30.04,29.96,8,2,13,0.00
2012-12-1,65,57,48,59,54,41,97,90,77,29.97,29.74,9,2,14,0.01
2012-12-2,68,54,40,54,47,40,98,82,50,29.99,29.81,7,2,12,0.01
2012-12-3,72,61,48,60,50,36,91,69,48,29.98,29.66,22,9,30,0.00
2012-12-4,62,48,35,36,30,26,81,53,28,30.28,29.98,7,1,9,0.00
2012-12-5,58,46,32,35,32,27,89,60,34,30.30,29.98,15,4,19,0.00
2012-12-6,52,48,43,43,39,34,86,72,61,29.99,29.82,10,2,13,0.00
2012-12-7,46,44,42,42,41,40,95,90,85,29.89,29.82,9,4,13,0.00
2012-12-8,44,38,32,39,35,31,97,90,75,29.99,29.87,10,2,13,0.01
2012-12-9,42,34,20,41,29,13,100,83,63,30.07,29.81,19,6,26,0.03
2012-12-10,30,22,18,18,12,10,77,67,48,30.11,30.01,17,5,23,0.00
2012-12-11,45,30,19,25,17,10,71,58,39,30.13,30.00,9,3,14,0.00
2012-12-12,50,38,28,23,17,13,68,46,23,30.19,30.08,20,5,30,0.00
2012-12-13,56,44,36,27,22,15,58,42,30,30.12,30.03,17,5,21,0.00
2012-12-14,52,45,36,42,32,26,93,62,48,30.08,29.67,19,6,25,0.34
2012-12-15,52,48,43,47,45,41,95,90,82,29.69,29.45,18,8,23,0.23
2012-12-29,27,27,27,20,20,20,76,74,73,30.30,30.28,4,3,7,0.00
2012-12-30,45,34,22,25,22,17,82,62,43,30.32,30.09,19,6,25,0.00
2012-12-31,37,29,19,28,24,16,92,80,62,30.19,30.05,13,5,16,0.00
2013-1-1,21,16,10,16,9,5,87,75,59,30.34,30.19,9,2,12,0.00